Weather History for Lincolnton, NC

Change the Weather History Date:

Monday, October 29, 2012

  Actual Average (KCLT) Record (KCLT)
Temperature  
Mean Temperature 46 °F 56 °F  
Max Temperature 51 °F 68 °F 82 °F (1984)
Min Temperature 41 °F 44 °F 27 °F (1976)
Degree Days  
Heating Degree Days 19 9  
Month to date heating degree days 165  
Since 1 July heating degree days 188  
Cooling Degree Days 0 0  
Month to date cooling degree days 39  
Year to date cooling degree days 1514  
Moisture  
Dew Point 31 °F    
Average Humidity 57    
Maximum Humidity 70    
Minimum Humidity 41    
Precipitation  
Precipitation 0.00 in 0.10 in 1.65 in (1880)
Month to date precipitation 3.20  
Year to date precipitation 35.04  
Snow  
Snow 0.00 in 0.00 in 0.00 in ()
Month to date snowfall 0.0  
Since 1 July snowfall 0.0  
Since 1 September snowfall 0.0  
Snow Depth -    
Sea Level Pressure  
Sea Level Pressure 29.63 in    
Wind  
Wind Speed 6 mph (WNW)    
Max Wind Speed 13 mph    
Max Gust Speed 22 mph    
Visibility 10 miles    
Events Rain    
T = Trace of Precipitation, MM = Missing Value Source: NWS Daily Summary

Daily Weather History Graph

Daily Weather History Graph

Search for Another Location

Airport:

Trip Planner

Search our weather history database for the weather conditions in past years. The results will help you decide how hot, cold, wet, or windy it might be!

Date:

Astronomy

Oct. 29, 2012 Rise Set
Actual Time 7:43 AM EDT 6:32 PM EDT
Civil Twilight 7:17 AM EDT 6:58 PM EDT
Nautical Twilight 6:47 AM EDT 7:28 PM EDT
Astronomical Twilight 6:18 AM EDT 7:57 PM EDT
Moon 6:24 PM EDT (10/29) 7:32 AM EDT (10/29)
Length of Visible Light 11h 40m
Length of Day
10h 48m
Full, 100% of the Moon is Illuminated
Oct 29
Full
Oct 29
Full
Nov 6
Last Quarter
Nov 13
New
Nov 20
First Quarter

Hourly Weather History & Observations

Time (EDT) Temp. Windchill Dew Point Humidity Pressure Visibility Wind Dir Wind Speed Gust Speed Precip Events Conditions
12:15 AM 46.4 °F 43.5 °F 32.0 °F 57% 29.71 in 10.0 mi WNW 5.8 mph - N/A   Scattered Clouds
12:35 AM 46.4 °F 44.3 °F 32.0 °F 57% 29.71 in 10.0 mi WNW 4.6 mph - N/A   Clear
12:55 AM 44.6 °F 42.2 °F 32.0 °F 61% 29.71 in 10.0 mi WNW 4.6 mph - N/A   Clear
1:15 AM 44.6 °F 39.2 °F 32.0 °F 61% 29.71 in 10.0 mi NW 10.4 mph - N/A   Clear
1:35 AM 44.6 °F 41.4 °F 32.0 °F 61% 29.70 in 10.0 mi WNW 5.8 mph - N/A   Clear
1:55 AM 44.6 °F 41.4 °F 32.0 °F 61% 29.70 in 10.0 mi NW 5.8 mph - N/A   Scattered Clouds
2:15 AM 44.6 °F 40.2 °F 32.0 °F 61% 29.69 in 10.0 mi NNW 8.1 mph - N/A   Scattered Clouds
2:35 AM 44.6 °F 43.1 °F 32.0 °F 61% 29.69 in 10.0 mi NW 3.5 mph - N/A   Scattered Clouds
2:55 AM 44.6 °F 42.2 °F 32.0 °F 61% 29.68 in 10.0 mi NW 4.6 mph - N/A   Scattered Clouds
3:15 AM 42.8 °F 38.6 °F 32.0 °F 66% 29.68 in 10.0 mi NNW 6.9 mph - N/A   Clear
3:35 AM 42.8 °F 41.1 °F 32.0 °F 66% 29.68 in 10.0 mi WNW 3.5 mph - N/A   Clear
3:55 AM 42.8 °F 40.1 °F 32.0 °F 66% 29.68 in 10.0 mi NW 4.6 mph - N/A   Clear
4:15 AM 42.8 °F 41.1 °F 32.0 °F 66% 29.68 in 10.0 mi WNW 3.5 mph - N/A   Clear
4:35 AM 42.8 °F - 32.0 °F 66% 29.67 in 10.0 mi Calm Calm - N/A   Clear
4:55 AM 41.0 °F 39.0 °F 32.0 °F 70% 29.67 in 10.0 mi NW 3.5 mph - N/A   Scattered Clouds
5:15 AM 41.0 °F - 32.0 °F 70% 29.67 in 10.0 mi Calm Calm - N/A   Scattered Clouds
5:35 AM 41.0 °F 39.0 °F 32.0 °F 70% 29.67 in 10.0 mi West 3.5 mph - N/A   Clear
5:55 AM 41.0 °F - 32.0 °F 70% 29.67 in 10.0 mi Calm Calm - N/A   Clear
6:15 AM 41.0 °F - 32.0 °F 70% 29.67 in 10.0 mi Calm Calm - N/A   Clear
6:35 AM 41.0 °F - 32.0 °F 70% 29.67 in 10.0 mi Calm Calm - N/A   Mostly Cloudy
6:55 AM 41.0 °F 39.0 °F 32.0 °F 70% 29.67 in 10.0 mi NW 3.5 mph - N/A   Overcast
7:15 AM 41.0 °F - 32.0 °F 70% 29.67 in 10.0 mi Calm Calm - N/A   Overcast
7:35 AM 41.0 °F - 32.0 °F 70% 29.67 in 10.0 mi Calm Calm - N/A   Scattered Clouds
7:55 AM 41.0 °F 38.0 °F 32.0 °F 70% 29.67 in 10.0 mi WNW 4.6 mph - N/A   Scattered Clouds
8:15 AM 42.8 °F 40.1 °F 32.0 °F 66% 29.67 in 10.0 mi WNW 4.6 mph - N/A   Scattered Clouds
8:35 AM 42.8 °F 39.3 °F 32.0 °F 66% 29.67 in 10.0 mi NW 5.8 mph - N/A   Mostly Cloudy
8:55 AM 44.6 °F 41.4 °F 32.0 °F 61% 29.67 in 10.0 mi NW 5.8 mph - N/A   Mostly Cloudy
9:15 AM 46.4 °F 45.2 °F 32.0 °F 57% 29.66 in 10.0 mi NW 3.5 mph - N/A   Overcast
9:35 AM 46.4 °F 45.2 °F 32.0 °F 57% 29.66 in 10.0 mi WNW 3.5 mph - N/A   Overcast
9:55 AM 46.4 °F 45.2 °F 32.0 °F 57% 29.66 in 10.0 mi NW 3.5 mph - N/A   Overcast
10:15 AM 46.4 °F 42.9 °F 30.2 °F 53% 29.65 in 10.0 mi NW 6.9 mph - N/A   Overcast
10:35 AM 48.2 °F - 30.2 °F 50% 29.65 in 10.0 mi NW 5.8 mph - N/A   Overcast
10:55 AM 50.0 °F - 30.2 °F 47% 29.65 in 10.0 mi NW 9.2 mph - N/A   Overcast
11:15 AM 50.0 °F - 30.2 °F 47% 29.65 in 10.0 mi NW 8.1 mph - N/A   Overcast
11:35 AM 50.0 °F - 30.2 °F 47% 29.65 in 10.0 mi NW 8.1 mph - N/A   Overcast
11:55 AM 50.0 °F - 30.2 °F 47% 29.65 in 10.0 mi WNW 8.1 mph - N/A   Overcast
12:15 PM 50.0 °F - 30.2 °F 47% 29.64 in 10.0 mi NW 12.7 mph 21.9 mph N/A   Overcast
12:35 PM 50.0 °F - 30.2 °F 47% 29.64 in 10.0 mi WNW 5.8 mph 18.4 mph N/A   Overcast
12:55 PM 50.0 °F - 28.4 °F 43% 29.63 in 10.0 mi NW 11.5 mph 19.6 mph N/A   Overcast
1:15 PM 50.0 °F - 30.2 °F 47% 29.62 in 10.0 mi WNW 5.8 mph 17.3 mph N/A   Overcast
1:35 PM 51.8 °F - 28.4 °F 41% 29.61 in 10.0 mi NW 11.5 mph 20.7 mph N/A   Overcast
1:55 PM 51.8 °F - 30.2 °F 44% 29.61 in 10.0 mi WNW 8.1 mph - N/A   Mostly Cloudy
2:15 PM 51.8 °F - 30.2 °F 44% 29.60 in 10.0 mi West 8.1 mph - N/A   Mostly Cloudy
2:35 PM 51.8 °F - 30.2 °F 44% 29.60 in 10.0 mi West 10.4 mph 18.4 mph N/A   Overcast
2:55 PM 50.0 °F - 28.4 °F 43% 29.59 in 10.0 mi WNW 8.1 mph 17.3 mph N/A   Overcast
3:15 PM 50.0 °F - 28.4 °F 43% 29.59 in 10.0 mi NW 8.1 mph 18.4 mph N/A   Mostly Cloudy
3:35 PM 50.0 °F - 30.2 °F 47% 29.58 in 10.0 mi WNW 9.2 mph 17.3 mph N/A   Overcast
3:55 PM 50.0 °F - 30.2 °F 47% 29.58 in 10.0 mi WNW 10.4 mph - N/A   Overcast
4:15 PM 50.0 °F - 30.2 °F 47% 29.58 in 10.0 mi WNW 6.9 mph 19.6 mph N/A   Overcast
4:35 PM 48.2 °F - 30.2 °F 50% 29.57 in 10.0 mi WNW 6.9 mph 18.4 mph N/A   Light Drizzle
4:55 PM 48.2 °F - 30.2 °F 50% 29.57 in 10.0 mi West 8.1 mph 17.3 mph N/A Rain Light Rain
5:15 PM 46.4 °F 41.9 °F 30.2 °F 53% 29.57 in 10.0 mi West 9.2 mph - N/A   Light Drizzle
5:35 PM 46.4 °F 43.5 °F 30.2 °F 53% 29.56 in 10.0 mi West 5.8 mph 17.3 mph N/A   Overcast
5:55 PM 46.4 °F 42.4 °F 32.0 °F 57% 29.56 in 10.0 mi West 8.1 mph 16.1 mph N/A   Overcast
6:15 PM 46.4 °F 41.5 °F 30.2 °F 53% 29.55 in 10.0 mi West 10.4 mph 18.4 mph N/A   Overcast
6:35 PM 46.4 °F 42.4 °F 30.2 °F 53% 29.55 in 10.0 mi West 8.1 mph - N/A   Mostly Cloudy
6:55 PM 44.6 °F 38.8 °F 30.2 °F 57% 29.55 in 10.0 mi West 11.5 mph 18.4 mph N/A   Mostly Cloudy
7:15 PM 44.6 °F 39.2 °F 30.2 °F 57% 29.55 in 10.0 mi West 10.4 mph 17.3 mph N/A   Overcast
7:35 PM 44.6 °F 38.8 °F 30.2 °F 57% 29.55 in 10.0 mi West 11.5 mph 16.1 mph N/A   Overcast
7:55 PM 44.6 °F 39.2 °F 30.2 °F 57% 29.54 in 10.0 mi West 10.4 mph 19.6 mph N/A   Overcast
8:15 PM 44.6 °F 38.8 °F 30.2 °F 57% 29.53 in 10.0 mi West 11.5 mph 18.4 mph N/A   Overcast
8:35 PM 44.6 °F 38.8 °F 30.2 °F 57% 29.53 in 10.0 mi West 11.5 mph 18.4 mph N/A   Overcast
8:55 PM 44.6 °F 38.8 °F 30.2 °F 57% 29.53 in 10.0 mi West 11.5 mph 18.4 mph N/A   Overcast
11:35 PM 44.6 °F 39.7 °F 30.2 °F 57% 29.51 in 10.0 mi West 9.2 mph 20.7 mph N/A   Overcast
11:55 PM 44.6 °F 38.8 °F 30.2 °F 57% 29.51 in 10.0 mi West 11.5 mph 17.3 mph N/A   Overcast